| time (UTC) | temp F | wind direction | speed MPH | gust MPH | rain 1hr in | rain 24hr in | rain mn in | humidity % | barometer mb |
| 20260904074100 | 89 | 195 | 3.0 | 12.0 | 0.00 | 0.00 | 0.00 | 45 | 1011.1 |
| 20260904073559 | 89 | 198 | 5.0 | 12.0 | 0.00 | 0.00 | 0.00 | 45 | 1011.0 |
| 20260904073106 | 89 | 229 | 4.0 | 12.0 | 0.00 | 0.00 | 0.00 | 46 | 1011.1 |
| 20260904072559 | 89 | 200 | 2.0 | 7.0 | 0.00 | 0.00 | 0.00 | 48 | 1011.1 |
| 20260904072059 | 89 | 170 | 2.0 | 7.0 | 0.00 | 0.00 | 0.00 | 48 | 1011.1 |
| 20260904071601 | 89 | 194 | 4.0 | 7.0 | 0.00 | 0.00 | 0.00 | 47 | 1011.1 |
| 20260904071059 | 89 | 231 | 3.0 | 7.0 | 0.00 | 0.00 | 0.00 | 48 | 1011.1 |
| 20260904070600 | 89 | 224 | 3.0 | 7.0 | 0.00 | 0.00 | 0.00 | 48 | 1011.1 |
| 20260904065559 | 90 | 221 | 3.0 | 6.0 | 0.00 | 0.00 | 0.00 | 47 | 1011.0 |
| 20260904065100 | 90 | 205 | 4.0 | 6.0 | 0.00 | 0.00 | 0.00 | 47 | 1011.0 |
| 20260904064621 | 90 | 245 | 3.0 | 10.0 | 0.00 | 0.00 | 0.00 | 46 | 1010.9 |
| 20260904064102 | 90 | 220 | 4.0 | 10.0 | 0.00 | 0.00 | 0.00 | 46 | 1010.8 |
| 20260904063600 | 90 | 229 | 4.0 | 10.0 | 0.00 | 0.00 | 0.00 | 46 | 1010.7 |
| 20260904063102 | 90 | 221 | 4.0 | 10.0 | 0.00 | 0.00 | 0.00 | 46 | 1010.7 |
| 20260904062559 | 91 | 195 | 5.0 | 10.0 | 0.00 | 0.00 | 0.00 | 46 | 1010.7 |
| 20260904062058 | 91 | 179 | 4.0 | 8.0 | 0.00 | 0.00 | 0.00 | 45 | 1010.7 |
| 20260904061601 | 91 | 224 | 5.0 | 8.0 | 0.00 | 0.00 | 0.00 | 45 | 1010.7 |
| 20260904061103 | 91 | 230 | 4.0 | 8.0 | 0.00 | 0.00 | 0.00 | 45 | 1010.6 |
| 20260904060559 | 91 | 184 | 4.0 | 8.0 | 0.00 | 0.00 | 0.00 | 45 | 1010.6 |
| 20260904055600 | 91 | 175 | 4.0 | 7.0 | 0.00 | 0.00 | 0.00 | 44 | 1010.4 |
| 20260904055101 | 91 | 174 | 4.0 | 7.0 | 0.00 | 0.00 | 0.00 | 44 | 1010.4 |
| 20260904054603 | 91 | 188 | 2.0 | 5.0 | 0.00 | 0.00 | 0.00 | 45 | 1010.3 |
| 20260904054101 | 91 | 169 | 2.0 | 4.0 | 0.00 | 0.00 | 0.00 | 46 | 1010.3 |
| 20260904053600 | 90 | 174 | 1.0 | 6.0 | 0.00 | 0.00 | 0.00 | 47 | 1010.4 |
| 20260904053104 | 91 | 166 | 2.0 | 6.0 | 0.00 | 0.00 | 0.00 | 48 | 1010.4 |
| 20260904052559 | 91 | 146 | 2.0 | 4.0 | 0.00 | 0.00 | 0.00 | 48 | 1010.4 |
| 20260904052100 | 91 | 147 | 2.0 | 5.0 | 0.00 | 0.00 | 0.00 | 48 | 1010.3 |
| 20260904051607 | 92 | 171 | 2.0 | 5.0 | 0.00 | 0.00 | 0.00 | 46 | 1010.4 |
| 20260904051059 | 92 | 167 | 3.0 | 5.0 | 0.00 | 0.00 | 0.00 | 45 | 1010.3 |
| 20260904050559 | 92 | 167 | 3.0 | 5.0 | 0.00 | 0.00 | 0.00 | 46 | 1010.2 |
| 20260904050142 | 92 | 147 | 2.0 | 5.0 | 0.00 | 0.00 | 0.00 | 46 | 1010.3 |
| 20260904045559 | 92 | 158 | 1.0 | 4.0 | 0.00 | 0.00 | 0.00 | 46 | 1010.2 |
| 20260904045058 | 93 | 117 | 2.0 | 7.0 | 0.00 | 0.00 | 0.00 | 45 | 1010.2 |
| 20260904044611 | 93 | 124 | 3.0 | 8.0 | 0.00 | 0.00 | 0.00 | 45 | 1010.2 |
| 20260904044100 | 93 | 190 | 4.0 | 8.0 | 0.00 | 0.00 | 0.00 | 45 | 1010.2 |
| 20260904043558 | 93 | 190 | 4.0 | 8.0 | 0.00 | 0.00 | 0.00 | 44 | 1010.1 |
| 20260904043121 | 93 | 162 | 2.0 | 6.0 | 0.00 | 0.00 | 0.00 | 44 | 1010.1 |
| 20260904042602 | 93 | 143 | 3.0 | 8.0 | 0.00 | 0.00 | 0.00 | 43 | 1010.1 |
| 20260904042100 | 93 | 153 | 3.0 | 8.0 | 0.00 | 0.00 | 0.00 | 43 | 1010.1 |
| 20260904041617 | 94 | 179 | 4.0 | 8.0 | 0.00 | 0.00 | 0.00 | 42 | 1010.1 |
| 20260904041059 | 94 | 186 | 3.0 | 5.0 | 0.00 | 0.00 | 0.00 | 42 | 1010.0 |
| 20260904040600 | 94 | 245 | 2.0 | 5.0 | 0.00 | 0.00 | 0.00 | 41 | 1009.9 |
| 20260904040123 | 94 | 194 | 2.0 | 5.0 | 0.00 | 0.00 | 0.00 | 41 | 1009.9 |
| 20260904035559 | 94 | 204 | 3.0 | 5.0 | 0.00 | 0.00 | 0.00 | 41 | 1009.9 |
| 20260904035059 | 94 | 169 | 3.0 | 7.0 | 0.00 | 0.00 | 0.00 | 40 | 1009.7 |
| 20260904034614 | 94 | 156 | 3.0 | 8.0 | 0.00 | 0.00 | 0.00 | 40 | 1009.7 |
| 20260904034059 | 94 | 193 | 4.0 | 8.0 | 0.00 | 0.00 | 0.00 | 40 | 1009.6 |
| 20260904033601 | 94 | 158 | 3.0 | 7.0 | 0.00 | 0.00 | 0.00 | 40 | 1009.5 |
| 20260904033108 | 94 | 194 | 3.0 | 7.0 | 0.00 | 0.00 | 0.00 | 40 | 1009.5 |
| 20260904032557 | 95 | 150 | 3.0 | 7.0 | 0.00 | 0.00 | 0.00 | 40 | 1009.4 |
| 20260904032058 | 95 | 210 | 4.0 | 8.0 | 0.00 | 0.00 | 0.00 | 40 | 1009.4 |
| 20260904031604 | 95 | 217 | 3.0 | 8.0 | 0.00 | 0.00 | 0.00 | 40 | 1009.3 |
| 20260904031058 | 95 | 180 | 4.0 | 8.0 | 0.00 | 0.00 | 0.00 | 40 | 1009.2 |
| 20260904030558 | 95 | 210 | 5.0 | 8.0 | 0.00 | 0.00 | 0.00 | 40 | 1009.2 |
| 20260904030103 | 95 | 179 | 4.0 | 5.0 | 0.00 | 0.00 | 0.00 | 40 | 1009.1 |
| 20260904025558 | 95 | 199 | 2.0 | 6.0 | 0.00 | 0.00 | 0.00 | 39 | 1009.1 |
| 20260904025057 | 96 | 200 | 3.0 | 6.0 | 0.00 | 0.00 | 0.00 | 38 | 1009.0 |
| 20260904024607 | 96 | 204 | 3.0 | 10.0 | 0.00 | 0.00 | 0.00 | 38 | 1009.0 |
| 20260904024057 | 96 | 209 | 5.0 | 10.0 | 0.00 | 0.00 | 0.00 | 38 | 1008.9 |
| 20260904023557 | 96 | 185 | 4.0 | 8.0 | 0.00 | 0.00 | 0.00 | 38 | 1008.8 |
| 20260904023111 | 96 | 218 | 3.0 | 7.0 | 0.00 | 0.00 | 0.00 | 38 | 1008.9 |
| 20260904022558 | 96 | 194 | 4.0 | 9.0 | 0.00 | 0.00 | 0.00 | 37 | 1008.7 |
| 20260904022058 | 96 | 163 | 3.0 | 9.0 | 0.00 | 0.00 | 0.00 | 37 | 1008.7 |
| 20260904021622 | 97 | 219 | 6.0 | 9.0 | 0.00 | 0.00 | 0.00 | 36 | 1008.6 |
| 20260904021058 | 97 | 205 | 4.0 | 8.0 | 0.00 | 0.00 | 0.00 | 35 | 1008.6 |
| 20260904020559 | 97 | 131 | 5.0 | 8.0 | 0.00 | 0.00 | 0.00 | 33 | 1008.6 |
| 20260904015558 | 97 | 181 | 5.0 | 8.0 | 0.00 | 0.00 | 0.00 | 32 | 1008.5 |
| 20260904015058 | 98 | 181 | 4.0 | 8.0 | 0.00 | 0.00 | 0.00 | 33 | 1008.5 |
| 20260904014633 | 98 | 198 | 4.0 | 9.0 | 0.00 | 0.00 | 0.00 | 32 | 1008.5 |
| 20260904014058 | 98 | 206 | 4.0 | 10.0 | 0.00 | 0.00 | 0.00 | 32 | 1008.5 |
| 20260904013559 | 98 | 227 | 4.0 | 10.0 | 0.00 | 0.00 | 0.00 | 32 | 1008.5 |
| 20260904013059 | 98 | 120 | 3.0 | 10.0 | 0.00 | 0.00 | 0.00 | 32 | 1008.5 |
| 20260904012558 | 98 | 198 | 5.0 | 9.0 | 0.00 | 0.00 | 0.00 | 32 | 1008.5 |
| 20260904012058 | 99 | 176 | 5.0 | 11.0 | 0.00 | 0.00 | 0.00 | 32 | 1008.5 |
| 20260904011609 | 99 | 157 | 4.0 | 11.0 | 0.00 | 0.00 | 0.00 | 32 | 1008.4 |
| 20260904011057 | 99 | 160 | 5.0 | 11.0 | 0.00 | 0.00 | 0.00 | 32 | 1008.4 |
| 20260904010558 | 99 | 200 | 6.0 | 13.0 | 0.00 | 0.00 | 0.00 | 32 | 1008.5 |
| 20260904005600 | 99 | 163 | 6.0 | 13.0 | 0.00 | 0.00 | 0.00 | 32 | 1008.5 |
| 20260904005058 | 99 | 164 | 4.0 | 13.0 | 0.00 | 0.00 | 0.00 | 32 | 1008.5 |
| 20260904004604 | 99 | 141 | 7.0 | 15.0 | 0.00 | 0.00 | 0.00 | 32 | 1008.5 |
| 20260904004058 | 99 | 233 | 7.0 | 15.0 | 0.00 | 0.00 | 0.00 | 32 | 1008.5 |
| 20260904003558 | 100 | 96 | 5.0 | 12.0 | 0.00 | 0.00 | 0.00 | 32 | 1008.5 |
| 20260904003103 | 100 | 175 | 6.0 | 9.0 | 0.00 | 0.00 | 0.00 | 32 | 1008.5 |
| 20260904002558 | 100 | 132 | 4.0 | 7.0 | 0.00 | 0.00 | 0.00 | 34 | 1008.5 |
| 20260904002059 | 100 | 150 | 3.0 | 10.0 | 0.00 | 0.00 | 0.00 | 34 | 1008.6 |
| 20260904001603 | 100 | 158 | 4.0 | 10.0 | 0.00 | 0.00 | 0.00 | 34 | 1008.5 |
| 20260904001058 | 100 | 134 | 4.0 | 9.0 | 0.00 | 0.00 | 0.00 | 34 | 1008.6 |
| 20260904000558 | 100 | 121 | 3.0 | 7.0 | 0.00 | 0.00 | 0.00 | 34 | 1008.6 |
| 20260903235558 | 100 | 252 | 3.0 | 7.0 | 0.00 | 0.00 | 0.00 | 33 | 1008.8 |
| 20260903235057 | 100 | 270 | 4.0 | 7.0 | 0.00 | 0.00 | 0.00 | 33 | 1008.9 |
| 20260903234601 | 99 | 143 | 4.0 | 7.0 | 0.00 | 0.00 | 0.00 | 34 | 1008.8 |
| 20260903234058 | 99 | 96 | 4.0 | 8.0 | 0.00 | 0.00 | 0.00 | 35 | 1008.9 |
| 20260903233559 | 99 | 113 | 5.0 | 8.0 | 0.00 | 0.00 | 0.00 | 35 | 1008.9 |
| 20260903233101 | 99 | 113 | 4.0 | 10.0 | 0.00 | 0.00 | 0.00 | 35 | 1008.9 |
| 20260903232558 | 99 | 141 | 6.0 | 10.0 | 0.00 | 0.00 | 0.00 | 35 | 1008.9 |
| 20260903232058 | 100 | 146 | 5.0 | 14.0 | 0.00 | 0.00 | 0.00 | 34 | 1009.0 |
| 20260903231612 | 100 | 216 | 6.0 | 14.0 | 0.00 | 0.00 | 0.00 | 33 | 1009.1 |
| 20260903231058 | 100 | 157 | 6.0 | 12.0 | 0.00 | 0.00 | 0.00 | 33 | 1009.1 |
| 20260903230602 | 101 | 172 | 7.0 | 11.0 | 0.00 | 0.00 | 0.00 | 31 | 1009.1 |
| 20260903230113 | 102 | 142 | 4.0 | 8.0 | 0.00 | 0.00 | 0.00 | 32 | 1009.2 |
| 20260903225558 | 102 | 195 | 3.0 | 13.0 | 0.00 | 0.00 | 0.00 | 32 | 1009.2 |
| 20260903225100 | 102 | 207 | 4.0 | 13.0 | 0.00 | 0.00 | 0.00 | 32 | 1009.3 |
| 20260903224600 | 101 | 160 | 5.0 | 11.0 | 0.00 | 0.00 | 0.00 | 33 | 1009.2 |
| 20260903224058 | 100 | 207 | 2.0 | 6.0 | 0.00 | 0.00 | 0.00 | 34 | 1008.9 |
| 20260903223601 | 100 | 111 | 1.0 | 8.0 | 0.00 | 0.00 | 0.00 | 34 | 1009.4 |
| 20260903223113 | 100 | 226 | 3.0 | 8.0 | 0.00 | 0.00 | 0.00 | 34 | 1009.6 |
| 20260903222558 | 101 | 167 | 2.0 | 10.0 | 0.00 | 0.00 | 0.00 | 33 | 1009.7 |
| 20260903222058 | 101 | 153 | 5.0 | 11.0 | 0.00 | 0.00 | 0.00 | 32 | 1009.8 |
| 20260903221601 | 101 | 230 | 5.0 | 11.0 | 0.00 | 0.00 | 0.00 | 34 | 1009.9 |
| 20260903221100 | 100 | 148 | 4.0 | 8.0 | 0.00 | 0.00 | 0.00 | 34 | 1009.9 |
| 20260903220558 | 100 | 177 | 3.0 | 11.0 | 0.00 | 0.00 | 0.00 | 35 | 1010.0 |
| 20260903220111 | 99 | 158 | 5.0 | 11.0 | 0.00 | 0.00 | 0.00 | 36 | 1010.1 |
| 20260903215600 | 100 | 117 | 5.0 | 11.0 | 0.00 | 0.00 | 0.00 | 34 | 1010.2 |
| 20260903215058 | 100 | 103 | 4.0 | 11.0 | 0.00 | 0.00 | 0.00 | 35 | 1010.2 |
| 20260903214606 | 101 | 102 | 3.0 | 6.0 | 0.00 | 0.00 | 0.00 | 33 | 1010.4 |
| 20260903214058 | 101 | 106 | 2.0 | 7.0 | 0.00 | 0.00 | 0.00 | 34 | 1010.5 |
| 20260903213558 | 100 | 115 | 3.0 | 10.0 | 0.00 | 0.00 | 0.00 | 35 | 1010.6 |
| 20260903213100 | 99 | 61 | 5.0 | 12.0 | 0.00 | 0.00 | 0.00 | 34 | 1010.7 |
| 20260903212558 | 100 | 123 | 6.0 | 12.0 | 0.00 | 0.00 | 0.00 | 35 | 1010.7 |
| 20260903212058 | 101 | 105 | 3.0 | 10.0 | 0.00 | 0.00 | 0.00 | 33 | 1010.9 |
| 20260903211616 | 101 | 206 | 5.0 | 10.0 | 0.00 | 0.00 | 0.00 | 33 | 1010.9 |
| 20260903211059 | 101 | 127 | 3.0 | 10.0 | 0.00 | 0.00 | 0.00 | 33 | 1011.0 |
| 20260903210559 | 100 | 209 | 4.0 | 12.0 | 0.00 | 0.00 | 0.00 | 34 | 1011.1 |
| 20260903205558 | 101 | 108 | 3.0 | 12.0 | 0.00 | 0.00 | 0.00 | 33 | 1011.3 |
| 20260903205058 | 101 | 271 | 6.0 | 12.0 | 0.00 | 0.00 | 0.00 | 34 | 1011.3 |
| 20260903204605 | 100 | 111 | 4.0 | 11.0 | 0.00 | 0.00 | 0.00 | 35 | 1011.3 |
| 20260903204101 | 99 | 172 | 5.0 | 11.0 | 0.00 | 0.00 | 0.00 | 35 | 1011.4 |
| 20260903203558 | 100 | 73 | 4.0 | 11.0 | 0.00 | 0.00 | 0.00 | 35 | 1011.5 |
| 20260903203105 | 100 | 239 | 2.0 | 11.0 | 0.00 | 0.00 | 0.00 | 35 | 1011.5 |
| 20260903202558 | 99 | 136 | 6.0 | 11.0 | 0.00 | 0.00 | 0.00 | 35 | 1011.7 |
| 20260903202059 | 99 | 128 | 3.0 | 10.0 | 0.00 | 0.00 | 0.00 | 35 | 1011.7 |
| 20260903201602 | 99 | 161 | 5.0 | 10.0 | 0.00 | 0.00 | 0.00 | 34 | 1011.8 |
| 20260903201058 | 100 | 164 | 3.0 | 9.0 | 0.00 | 0.00 | 0.00 | 35 | 1011.8 |
| 20260903200559 | 99 | 262 | 2.0 | 12.0 | 0.00 | 0.00 | 0.00 | 34 | 1011.8 |
| 20260903200112 | 98 | 235 | 5.0 | 12.0 | 0.00 | 0.00 | 0.00 | 36 | 1011.9 |
| 20260903195558 | 98 | 97 | 5.0 | 11.0 | 0.00 | 0.00 | 0.00 | 35 | 1011.9 |
| 20260903195102 | 97 | 90 | 5.0 | 11.0 | 0.00 | 0.00 | 0.00 | 37 | 1012.0 |
| 20260903194605 | 98 | 136 | 4.0 | 10.0 | 0.00 | 0.00 | 0.00 | 38 | 1012.1 |
| 20260903194058 | 97 | 200 | 4.0 | 9.0 | 0.00 | 0.00 | 0.00 | 38 | 1012.2 |
| 20260903193558 | 96 | 0 | 2.0 | 9.0 | 0.00 | 0.00 | 0.00 | 38 | 1012.3 |
| 20260903193105 | 97 | 134 | 5.0 | 9.0 | 0.00 | 0.00 | 0.00 | 38 | 1012.4 |
| 20260903192558 | 97 | 68 | 2.0 | 9.0 | 0.00 | 0.00 | 0.00 | 38 | 1012.4 |
| 20260903192059 | 97 | 167 | 4.0 | 12.0 | 0.00 | 0.00 | 0.00 | 37 | 1012.5 |
| 20260903191608 | 97 | 125 | 6.0 | 12.0 | 0.00 | 0.00 | 0.00 | 39 | 1012.6 |
| 20260903191058 | 97 | 79 | 3.0 | 10.0 | 0.00 | 0.00 | 0.00 | 39 | 1012.6 |
| 20260903190558 | 96 | 77 | 2.0 | 10.0 | 0.00 | 0.00 | 0.00 | 39 | 1012.8 |
| 20260903185558 | 96 | 143 | 3.0 | 8.0 | 0.00 | 0.00 | 0.00 | 40 | 1013.0 |
| 20260903185058 | 96 | 0 | 2.0 | 7.0 | 0.00 | 0.00 | 0.00 | 41 | 1013.0 |
| 20260903184604 | 97 | 131 | 1.0 | 7.0 | 0.00 | 0.00 | 0.00 | 40 | 1013.2 |
| 20260903184058 | 96 | 201 | 4.0 | 11.0 | 0.00 | 0.00 | 0.00 | 41 | 1013.2 |
| 20260903183558 | 96 | 124 | 2.0 | 11.0 | 0.00 | 0.00 | 0.00 | 42 | 1013.3 |
| 20260903183121 | 96 | 113 | 3.0 | 8.0 | 0.00 | 0.00 | 0.00 | 42 | 1013.4 |
| 20260903182558 | 95 | 231 | 2.0 | 12.0 | 0.00 | 0.00 | 0.00 | 43 | 1013.4 |
| 20260903182102 | 95 | 98 | 5.0 | 12.0 | 0.00 | 0.00 | 0.00 | 43 | 1013.6 |
| 20260903181629 | 95 | 139 | 1.0 | 7.0 | 0.00 | 0.00 | 0.00 | 42 | 1013.6 |
| 20260903181059 | 95 | 120 | 2.0 | 8.0 | 0.00 | 0.00 | 0.00 | 41 | 1013.7 |
| 20260903180557 | 95 | 142 | 4.0 | 8.0 | 0.00 | 0.00 | 0.00 | 40 | 1013.9 |
| 20260903175558 | 95 | 120 | 4.0 | 10.0 | 0.00 | 0.00 | 0.00 | 45 | 1014.0 |
| 20260903175103 | 95 | 136 | 3.0 | 9.0 | 0.00 | 0.00 | 0.00 | 45 | 1014.0 |
| 20260903174604 | 93 | 160 | 4.0 | 9.0 | 0.00 | 0.00 | 0.00 | 46 | 1014.1 |
| 20260903174059 | 93 | 181 | 4.0 | 9.0 | 0.00 | 0.00 | 0.00 | 46 | 1014.1 |
| 20260903173602 | 93 | 67 | 5.0 | 9.0 | 0.00 | 0.00 | 0.00 | 44 | 1014.2 |
| 20260903173112 | 94 | 178 | 3.0 | 8.0 | 0.00 | 0.00 | 0.00 | 46 | 1014.2 |
| 20260903172558 | 93 | 159 | 4.0 | 8.0 | 0.00 | 0.00 | 0.00 | 46 | 1014.1 |
| 20260903172059 | 92 | 135 | 3.0 | 10.0 | 0.00 | 0.00 | 0.00 | 47 | 1014.2 |
| 20260903171607 | 92 | 171 | 5.0 | 10.0 | 0.00 | 0.00 | 0.00 | 48 | 1014.2 |
| 20260903171058 | 92 | 129 | 6.0 | 10.0 | 0.00 | 0.00 | 0.00 | 48 | 1014.1 |
| 20260903170558 | 92 | 138 | 5.0 | 9.0 | 0.00 | 0.00 | 0.00 | 49 | 1014.1 |
| 20260903165559 | 92 | 161 | 6.0 | 11.0 | 0.00 | 0.00 | 0.00 | 49 | 1014.1 |
| 20260903165058 | 91 | 207 | 5.0 | 10.0 | 0.00 | 0.00 | 0.00 | 50 | 1014.2 |
| 20260903164608 | 91 | 164 | 4.0 | 11.0 | 0.00 | 0.00 | 0.00 | 51 | 1014.2 |
| 20260903164058 | 91 | 214 | 6.0 | 11.0 | 0.00 | 0.00 | 0.00 | 52 | 1014.2 |
| 20260903163558 | 91 | 181 | 5.0 | 10.0 | 0.00 | 0.00 | 0.00 | 53 | 1014.3 |
| 20260903163100 | 90 | 172 | 4.0 | 10.0 | 0.00 | 0.00 | 0.00 | 53 | 1014.2 |
| 20260903162559 | 91 | 193 | 5.0 | 9.0 | 0.00 | 0.00 | 0.00 | 52 | 1014.2 |
| 20260903162059 | 90 | 188 | 3.0 | 9.0 | 0.00 | 0.00 | 0.00 | 53 | 1014.3 |
| 20260903161617 | 89 | 143 | 2.0 | 7.0 | 0.00 | 0.00 | 0.00 | 55 | 1014.2 |
| 20260903161058 | 90 | 163 | 4.0 | 7.0 | 0.00 | 0.00 | 0.00 | 55 | 1014.4 |
| 20260903160558 | 89 | 147 | 3.0 | 6.0 | 0.00 | 0.00 | 0.00 | 55 | 1014.2 |
| 20260903160101 | 89 | 122 | 2.0 | 5.0 | 0.00 | 0.00 | 0.00 | 55 | 1014.4 |
| 20260903155559 | 89 | 152 | 2.0 | 5.0 | 0.00 | 0.00 | 0.00 | 54 | 1014.4 |
| 20260903155058 | 89 | 162 | 2.0 | 5.0 | 0.00 | 0.00 | 0.00 | 56 | 1014.4 |
| 20260903154603 | 89 | 153 | 0.0 | 4.0 | 0.00 | 0.00 | 0.00 | 55 | 1014.5 |
| 20260903154059 | 88 | 0 | 1.0 | 5.0 | 0.00 | 0.00 | 0.00 | 50 | 1014.4 |
| 20260903153558 | 87 | 23 | 2.0 | 5.0 | 0.00 | 0.00 | 0.00 | 57 | 1014.4 |
| 20260903153106 | 86 | 60 | 2.0 | 4.0 | 0.00 | 0.00 | 0.00 | 56 | 1014.4 |
| 20260903152558 | 85 | 55 | 2.0 | 4.0 | 0.00 | 0.00 | 0.00 | 55 | 1014.4 |
| 20260903152101 | 85 | 77 | 1.0 | 4.0 | 0.00 | 0.00 | 0.00 | 51 | 1014.4 |
| 20260903151614 | 84 | 63 | 2.0 | 4.0 | 0.00 | 0.00 | 0.00 | 51 | 1014.3 |
| 20260903151059 | 84 | 38 | 2.0 | 4.0 | 0.00 | 0.00 | 0.00 | 51 | 1014.4 |
| 20260903150600 | 84 | 64 | 1.0 | 4.0 | 0.00 | 0.00 | 0.00 | 51 | 1014.4 |
| 20260903145559 | 84 | 51 | 1.0 | 3.0 | 0.00 | 0.00 | 0.00 | 50 | 1014.4 |
| 20260903145100 | 84 | 63 | 1.0 | 3.0 | 0.00 | 0.00 | 0.00 | 48 | 1014.4 |
| 20260903144602 | 84 | 63 | 2.0 | 3.0 | 0.00 | 0.00 | 0.00 | 48 | 1014.4 |
| 20260903144100 | 84 | 71 | 0.0 | 2.0 | 0.00 | 0.00 | 0.00 | 48 | 1014.4 |
| 20260903143600 | 84 | 0 | 0.0 | 5.0 | 0.00 | 0.00 | 0.00 | 48 | 1014.3 |
| 20260903143103 | 84 | 53 | 0.0 | 5.0 | 0.00 | 0.00 | 0.00 | 48 | 1014.3 |
| 20260903142600 | 84 | 340 | 1.0 | 3.0 | 0.00 | 0.00 | 0.00 | 46 | 1014.2 |
| 20260903142100 | 85 | 62 | 1.0 | 2.0 | 0.00 | 0.00 | 0.00 | 45 | 1014.2 |
| 20260903141605 | 85 | 63 | 0.0 | 3.0 | 0.00 | 0.00 | 0.00 | 44 | 1014.2 |
| 20260903141101 | 85 | 0 | 0.0 | 3.0 | 0.00 | 0.00 | 0.00 | 45 | 1014.1 |
| 20260903140600 | 85 | 65 | 1.0 | 2.0 | 0.00 | 0.00 | 0.00 | 44 | 1014.1 |
| 20260903140104 | 85 | 56 | 1.0 | 2.0 | 0.00 | 0.00 | 0.00 | 45 | 1014.0 |
| 20260903135600 | 85 | 55 | 0.0 | 0.0 | 0.00 | 0.00 | 0.00 | 45 | 1014.0 |
| 20260903135100 | 84 | 0 | 0.0 | 0.0 | 0.00 | 0.00 | 0.00 | 47 | 1013.8 |
| 20260903134609 | 83 | 0 | 0.0 | 1.0 | 0.00 | 0.00 | 0.00 | 47 | 1013.7 |
| 20260903134100 | 83 | 0 | 0.0 | 1.0 | 0.00 | 0.00 | 0.00 | 47 | 1013.7 |
| 20260903133600 | 82 | 55 | 0.0 | 3.0 | 0.00 | 0.00 | 0.00 | 47 | 1013.7 |
| 20260903133109 | 82 | 0 | 0.0 | 4.0 | 0.00 | 0.00 | 0.00 | 48 | 1013.7 |
| 20260903132559 | 81 | 56 | 1.0 | 4.0 | 0.00 | 0.00 | 0.00 | 48 | 1013.6 |
| 20260903132100 | 80 | 53 | 2.0 | 4.0 | 0.00 | 0.00 | 0.00 | 49 | 1013.5 |
| 20260903131604 | 80 | 0 | 0.0 | 0.0 | 0.00 | 0.00 | 0.00 | 49 | 1013.4 |
| 20260903131059 | 81 | 0 | 0.0 | 0.0 | 0.00 | 0.00 | 0.00 | 48 | 1013.3 |
| 20260903130604 | 80 | 0 | 0.0 | 0.0 | 0.00 | 0.00 | 0.00 | 49 | 1013.2 |
| 20260903130105 | 80 | 0 | 0.0 | 0.0 | 0.00 | 0.00 | 0.00 | 48 | 1013.2 |
| 20260903125600 | 80 | 0 | 0.0 | 0.0 | 0.00 | 0.00 | 0.00 | 49 | 1013.2 |
| 20260903125100 | 79 | 0 | 0.0 | 0.0 | 0.00 | 0.00 | 0.00 | 49 | 1013.2 |
| 20260903124606 | 80 | 0 | 0.0 | 0.0 | 0.00 | 0.00 | 0.00 | 49 | 1013.2 |
| 20260903124059 | 80 | 0 | 0.0 | 0.0 | 0.00 | 0.00 | 0.00 | 50 | 1013.1 |
| 20260903123559 | 80 | 0 | 0.0 | 0.0 | 0.00 | 0.00 | 0.00 | 50 | 1013.0 |
| 20260903123105 | 80 | 0 | 0.0 | 0.0 | 0.00 | 0.00 | 0.00 | 49 | 1013.0 |
| 20260903122601 | 81 | 0 | 0.0 | 2.0 | 0.00 | 0.00 | 0.00 | 47 | 1012.9 |
| 20260903122100 | 81 | 0 | 1.0 | 2.0 | 0.00 | 0.00 | 0.00 | 47 | 1012.9 |
| 20260903121605 | 81 | 71 | 0.0 | 1.0 | 0.00 | 0.00 | 0.00 | 47 | 1012.8 |
| 20260903121059 | 80 | 0 | 0.0 | 1.0 | 0.00 | 0.00 | 0.00 | 47 | 1012.9 |
| 20260903120602 | 80 | 0 | 0.0 | 2.0 | 0.00 | 0.00 | 0.00 | 46 | 1012.8 |
| 20260903120104 | 80 | 0 | 0.0 | 2.0 | 0.00 | 0.00 | 0.00 | 46 | 1012.7 |
| 20260903115557 | 80 | 0 | 0.0 | 1.0 | 0.00 | 0.00 | 0.00 | 45 | 1012.7 |
| 20260903115058 | 80 | 0 | 0.0 | 1.0 | 0.00 | 0.00 | 0.00 | 44 | 1012.7 |
| 20260903114602 | 81 | 353 | 0.0 | 1.0 | 0.00 | 0.00 | 0.00 | 43 | 1012.7 |
| 20260903114058 | 81 | 0 | 0.0 | 1.0 | 0.00 | 0.00 | 0.00 | 44 | 1012.7 |
| 20260903113601 | 80 | 110 | 0.0 | 1.0 | 0.00 | 0.00 | 0.00 | 44 | 1012.6 |
| 20260903113102 | 80 | 0 | 0.0 | 1.0 | 0.00 | 0.00 | 0.00 | 44 | 1012.6 |
| 20260903112559 | 80 | 0 | 0.0 | 0.0 | 0.00 | 0.00 | 0.00 | 42 | 1012.7 |
| 20260903112059 | 80 | 0 | 0.0 | 1.0 | 0.00 | 0.00 | 0.00 | 42 | 1012.7 |
| 20260903111602 | 81 | 0 | 0.0 | 1.0 | 0.00 | 0.00 | 0.00 | 42 | 1012.7 |
| 20260903111058 | 81 | 0 | 0.0 | 3.0 | 0.00 | 0.00 | 0.00 | 42 | 1012.6 |
| 20260903110602 | 81 | 0 | 0.0 | 3.0 | 0.00 | 0.00 | 0.00 | 41 | 1012.7 |
| 20260903110106 | 81 | 61 | 0.0 | 0.0 | 0.00 | 0.00 | 0.00 | 41 | 1012.7 |
| 20260903105602 | 81 | 0 | 0.0 | 0.0 | 0.00 | 0.00 | 0.00 | 41 | 1012.6 |
| 20260903105058 | 81 | 0 | 0.0 | 0.0 | 0.00 | 0.00 | 0.00 | 42 | 1012.6 |
| 20260903104605 | 81 | 0 | 0.0 | 0.0 | 0.00 | 0.00 | 0.00 | 42 | 1012.6 |
| 20260903104058 | 81 | 0 | 0.0 | 0.0 | 0.00 | 0.00 | 0.00 | 42 | 1012.7 |
| 20260903103558 | 81 | 0 | 0.0 | 0.0 | 0.00 | 0.00 | 0.00 | 42 | 1012.7 |
| 20260903103101 | 81 | 0 | 0.0 | 0.0 | 0.00 | 0.00 | 0.00 | 42 | 1012.7 |
| 20260903102558 | 81 | 0 | 0.0 | 0.0 | 0.00 | 0.00 | 0.00 | 42 | 1012.7 |
| 20260903102058 | 81 | 0 | 0.0 | 0.0 | 0.00 | 0.00 | 0.00 | 41 | 1012.7 |
| 20260903101612 | 81 | 0 | 0.0 | 0.0 | 0.00 | 0.00 | 0.00 | 41 | 1012.8 |
| 20260903101059 | 82 | 0 | 0.0 | 0.0 | 0.00 | 0.00 | 0.00 | 41 | 1012.8 |
| 20260903100559 | 82 | 0 | 0.0 | 0.0 | 0.00 | 0.00 | 0.00 | 40 | 1012.8 |
| 20260903095558 | 82 | 0 | 0.0 | 0.0 | 0.00 | 0.00 | 0.00 | 39 | 1012.8 |
| 20260903095059 | 82 | 0 | 0.0 | 0.0 | 0.00 | 0.00 | 0.00 | 38 | 1012.7 |
| 20260903094610 | 82 | 0 | 0.0 | 0.0 | 0.00 | 0.00 | 0.00 | 38 | 1012.8 |
| 20260903094059 | 82 | 0 | 0.0 | 0.0 | 0.00 | 0.00 | 0.00 | 38 | 1012.7 |
| 20260903093559 | 82 | 0 | 0.0 | 0.0 | 0.00 | 0.00 | 0.00 | 38 | 1012.8 |
| 20260903093107 | 83 | 0 | 0.0 | 0.0 | 0.00 | 0.00 | 0.00 | 38 | 1012.7 |
| 20260903092558 | 83 | 0 | 0.0 | 1.0 | 0.00 | 0.00 | 0.00 | 37 | 1012.7 |
| 20260903092058 | 83 | 0 | 0.0 | 1.0 | 0.00 | 0.00 | 0.00 | 37 | 1012.7 |
| 20260903091608 | 83 | 0 | 0.0 | 1.0 | 0.00 | 0.00 | 0.00 | 37 | 1012.7 |
| 20260903091058 | 83 | 280 | 0.0 | 2.0 | 0.00 | 0.00 | 0.00 | 37 | 1012.8 |
| 20260903090558 | 83 | 0 | 0.0 | 2.0 | 0.00 | 0.00 | 0.00 | 37 | 1012.7 |
| 20260903090106 | 83 | 0 | 0.0 | 1.0 | 0.00 | 0.00 | 0.00 | 36 | 1012.7 |
| 20260903085559 | 83 | 0 | 0.0 | 1.0 | 0.00 | 0.00 | 0.00 | 36 | 1012.7 |
| 20260903085059 | 83 | 0 | 0.0 | 1.0 | 0.00 | 0.00 | 0.00 | 36 | 1012.7 |
| 20260903084600 | 84 | 0 | 0.0 | 1.0 | 0.00 | 0.00 | 0.00 | 36 | 1012.8 |
| 20260903084058 | 84 | 274 | 0.0 | 1.0 | 0.00 | 0.00 | 0.00 | 37 | 1012.7 |
| 20260903083559 | 84 | 0 | 0.0 | 3.0 | 0.00 | 0.00 | 0.00 | 37 | 1012.7 |
| 20260903083107 | 84 | 230 | 0.0 | 3.0 | 0.00 | 0.00 | 0.00 | 36 | 1012.6 |
| 20260903082558 | 84 | 167 | 1.0 | 3.0 | 0.00 | 0.00 | 0.00 | 36 | 1012.7 |
| 20260903082058 | 84 | 167 | 2.0 | 3.0 | 0.00 | 0.00 | 0.00 | 36 | 1012.7 |
| 20260903081602 | 84 | 188 | 1.0 | 2.0 | 0.00 | 0.00 | 0.00 | 36 | 1012.7 |
| 20260903081100 | 84 | 181 | 0.0 | 0.0 | 0.00 | 0.00 | 0.00 | 38 | 1012.6 |
| 20260903080559 | 84 | 0 | 0.0 | 0.0 | 0.00 | 0.00 | 0.00 | 37 | 1012.6 |
| 20260903080113 | 84 | 0 | 0.0 | 0.0 | 0.00 | 0.00 | 0.00 | 36 | 1012.5 |
| 20260903075559 | 84 | 0 | 0.0 | 0.0 | 0.00 | 0.00 | 0.00 | 36 | 1012.5 |
| 20260903075058 | 85 | 0 | 0.0 | 0.0 | 0.00 | 0.00 | 0.00 | 35 | 1012.5 |
| 20260903074602 | 85 | 0 | 0.0 | 0.0 | 0.00 | 0.00 | 0.00 | 35 | 1012.5 |